Time,TemperatureF,DewpointF,PressureIn,WindDirection,WindDirectionDegrees,WindSpeedMPH,WindSpeedGustMPH,Humidity,HourlyPrecipIn,Conditions,Clouds,dailyrainin,SoftwareType,DateUTC
2013-07-25 00:02:00,64.4,58.8,29.98,SE,146,0.0,0.0,82,0.00,,---,0.00,VWS V14.01,2013-07-25 05:02:00,
2013-07-25 00:07:00,64.4,58.8,29.97,SE,146,0.0,0.0,82,0.00,,---,0.00,VWS V14.01,2013-07-25 05:07:00,
2013-07-25 00:12:00,64.5,58.9,29.97,SE,146,0.0,0.0,82,0.00,,---,0.00,VWS V14.01,2013-07-25 05:12:00,
2013-07-25 00:17:00,64.7,59.1,29.97,SE,146,0.0,0.0,82,0.00,,---,0.00,VWS V14.01,2013-07-25 05:17:00,
2013-07-25 00:22:00,64.7,59.1,29.97,SE,146,0.0,0.0,82,0.00,,---,0.00,VWS V14.01,2013-07-25 05:22:00,
2013-07-25 00:27:00,64.6,59.0,29.97,SE,146,0.0,0.0,82,0.00,,---,0.00,VWS V14.01,2013-07-25 05:27:00,
2013-07-25 00:32:00,64.8,59.2,29.97,SSE,147,0.0,1.0,82,0.00,,---,0.00,VWS V14.01,2013-07-25 05:32:00,
2013-07-25 00:37:00,65.0,59.0,29.97,SSE,147,1.0,1.0,81,0.00,,---,0.00,VWS V14.01,2013-07-25 05:37:00,
2013-07-25 00:42:00,65.4,59.1,29.96,South,179,0.0,1.0,80,0.00,,---,0.00,VWS V14.01,2013-07-25 05:42:00,
2013-07-25 00:47:00,65.7,59.4,29.97,West,267,0.0,2.0,80,0.00,,---,0.00,VWS V14.01,2013-07-25 05:47:00,
2013-07-25 00:52:00,66.1,59.4,29.96,SW,230,0.0,3.0,79,0.00,,---,0.00,VWS V14.01,2013-07-25 05:52:00,
2013-07-25 00:57:00,66.2,59.2,29.96,SW,230,0.0,0.0,78,0.00,,---,0.00,VWS V14.01,2013-07-25 05:57:00,
2013-07-25 01:02:00,66.1,59.4,29.97,SW,230,0.0,0.0,79,0.00,,---,0.00,VWS V14.01,2013-07-25 06:02:00,
2013-07-25 01:07:00,66.0,59.3,29.97,SW,230,0.0,0.0,79,0.00,,---,0.00,VWS V14.01,2013-07-25 06:07:00,
2013-07-25 01:12:00,65.9,59.6,29.97,SW,230,0.0,0.0,80,0.00,,---,0.00,VWS V14.01,2013-07-25 06:12:00,
2013-07-25 01:17:00,65.7,59.7,29.97,SW,230,0.0,0.0,81,0.00,,---,0.00,VWS V14.01,2013-07-25 06:17:00,
2013-07-25 01:22:00,65.4,59.4,29.96,SW,230,0.0,0.0,81,0.00,,---,0.00,VWS V14.01,2013-07-25 06:22:00,
2013-07-25 01:27:00,65.2,59.2,29.96,SW,230,0.0,0.0,81,0.00,,---,0.00,VWS V14.01,2013-07-25 06:27:00,
2013-07-25 01:32:00,65.1,59.5,29.95,SW,230,0.0,0.0,82,0.00,,---,0.00,VWS V14.01,2013-07-25 06:32:00,
2013-07-25 01:37:00,64.9,59.6,29.95,SW,230,0.0,0.0,83,0.00,,---,0.00,VWS V14.01,2013-07-25 06:37:00,
2013-07-25 01:42:00,64.8,59.9,29.95,SW,230,0.0,0.0,84,0.00,,---,0.00,VWS V14.01,2013-07-25 06:42:00,
2013-07-25 01:47:00,64.7,60.1,29.95,SW,230,0.0,0.0,85,0.00,,---,0.00,VWS V14.01,2013-07-25 06:47:00,
2013-07-25 01:52:00,64.7,60.1,29.95,SW,230,0.0,0.0,85,0.00,,---,0.00,VWS V14.01,2013-07-25 06:52:00,
2013-07-25 01:57:00,64.6,60.3,29.95,SW,230,0.0,0.0,86,0.00,,---,0.00,VWS V14.01,2013-07-25 06:57:00,
2013-07-25 02:02:00,64.7,60.8,29.95,SW,230,0.0,0.0,87,0.00,,---,0.00,VWS V14.01,2013-07-25 07:02:00,
2013-07-25 02:07:00,64.6,60.3,29.95,SW,230,0.0,0.0,86,0.00,,---,0.00,VWS V14.01,2013-07-25 07:07:00,
2013-07-25 02:12:00,64.5,60.2,29.95,SW,230,0.0,0.0,86,0.00,,---,0.00,VWS V14.01,2013-07-25 07:12:00,
2013-07-25 02:17:00,64.5,60.2,29.95,SW,230,0.0,0.0,86,0.00,,---,0.00,VWS V14.01,2013-07-25 07:17:00,
2013-07-25 02:22:00,64.5,60.2,29.94,SW,230,0.0,0.0,86,0.00,,---,0.00,VWS V14.01,2013-07-25 07:22:00,
2013-07-25 02:27:00,64.6,60.3,29.94,SW,230,0.0,0.0,86,0.00,,---,0.00,VWS V14.01,2013-07-25 07:27:00,
2013-07-25 02:32:00,64.7,60.1,29.94,SW,230,0.0,0.0,85,0.00,,---,0.00,VWS V14.01,2013-07-25 07:32:00,
2013-07-25 02:37:00,64.9,60.3,29.94,SW,230,0.0,0.0,85,0.00,,---,0.00,VWS V14.01,2013-07-25 07:37:00,
2013-07-25 02:42:00,65.0,60.0,29.94,SW,230,0.0,0.0,84,0.00,,---,0.00,VWS V14.01,2013-07-25 07:42:00,
2013-07-25 02:47:00,65.2,60.2,29.95,SW,230,0.0,0.0,84,0.00,,---,0.00,VWS V14.01,2013-07-25 07:47:00,
2013-07-25 02:52:00,65.4,60.1,29.95,SW,230,0.0,0.0,83,0.00,,---,0.00,VWS V14.01,2013-07-25 07:52:00,
2013-07-25 02:57:00,65.8,60.5,29.95,SW,230,0.0,0.0,83,0.00,,---,0.00,VWS V14.01,2013-07-25 07:57:00,
2013-07-25 03:02:00,65.8,60.5,29.94,SW,230,0.0,0.0,83,0.00,,---,0.00,VWS V14.01,2013-07-25 08:02:00,
2013-07-25 03:07:00,65.7,60.1,29.94,SW,230,0.0,0.0,82,0.00,,---,0.00,VWS V14.01,2013-07-25 08:07:00,
2013-07-25 03:12:00,65.7,60.4,29.94,SW,230,0.0,0.0,83,0.00,,---,0.00,VWS V14.01,2013-07-25 08:12:00,
2013-07-25 03:17:00,65.6,60.3,29.94,SW,230,0.0,0.0,83,0.00,,---,0.00,VWS V14.01,2013-07-25 08:17:00,
2013-07-25 03:22:00,65.5,60.2,29.94,SW,230,0.0,0.0,83,0.00,,---,0.00,VWS V14.01,2013-07-25 08:22:00,
2013-07-25 03:27:00,65.5,60.5,29.94,SW,230,0.0,0.0,84,0.00,,---,0.00,VWS V14.01,2013-07-25 08:27:00,
2013-07-25 03:32:00,65.4,60.5,29.94,SW,230,0.0,0.0,84,0.00,,---,0.00,VWS V14.01,2013-07-25 08:32:00,
2013-07-25 03:37:00,65.2,60.2,29.94,SW,230,0.0,0.0,84,0.00,,---,0.00,VWS V14.01,2013-07-25 08:37:00,
2013-07-25 03:42:00,65.0,60.0,29.94,SW,230,0.0,0.0,84,0.00,,---,0.00,VWS V14.01,2013-07-25 08:42:00,
2013-07-25 03:47:00,64.9,60.3,29.95,SW,230,0.0,0.0,85,0.00,,---,0.00,VWS V14.01,2013-07-25 08:47:00,
2013-07-25 03:52:00,65.1,60.8,29.96,West,263,2.0,2.0,86,0.00,,---,0.00,VWS V14.01,2013-07-25 08:52:00,
2013-07-25 03:57:00,65.3,59.7,29.95,WSW,247,2.0,2.0,82,0.00,,---,0.00,VWS V14.01,2013-07-25 08:57:00,
2013-07-25 04:02:00,65.5,59.9,29.95,WSW,242,0.0,4.0,82,0.01,,---,0.01,VWS V14.01,2013-07-25 09:02:00,
2013-07-25 04:07:00,65.4,60.1,29.95,WSW,256,1.0,4.0,83,0.01,,---,0.01,VWS V14.01,2013-07-25 09:07:00,
2013-07-25 04:12:00,65.0,60.0,29.95,WSW,256,0.0,0.0,84,0.01,,---,0.01,VWS V14.01,2013-07-25 09:12:00,
2013-07-25 04:17:00,64.7,60.1,29.95,WSW,256,0.0,1.0,85,0.01,,---,0.01,VWS V14.01,2013-07-25 09:17:00,
2013-07-25 04:22:00,64.3,60.0,29.95,WSW,256,0.0,1.0,86,0.01,,---,0.01,VWS V14.01,2013-07-25 09:22:00,
2013-07-25 04:27:00,63.9,59.6,29.95,WSW,256,0.0,0.0,86,0.01,,---,0.01,VWS V14.01,2013-07-25 09:27:00,
2013-07-25 04:32:00,63.5,59.6,29.95,WSW,256,0.0,0.0,87,0.01,,---,0.01,VWS V14.01,2013-07-25 09:32:00,
2013-07-25 04:37:00,63.0,59.4,29.95,WSW,256,0.0,0.0,88,0.01,,---,0.01,VWS V14.01,2013-07-25 09:37:00,
2013-07-25 04:42:00,62.6,59.0,29.95,WSW,256,0.0,0.0,88,0.01,,---,0.01,VWS V14.01,2013-07-25 09:42:00,
2013-07-25 04:47:00,62.4,59.1,29.95,WSW,256,0.0,0.0,89,0.01,,---,0.01,VWS V14.01,2013-07-25 09:47:00,
2013-07-25 04:52:00,62.3,59.3,29.95,WSW,256,0.0,0.0,90,0.01,,---,0.01,VWS V14.01,2013-07-25 09:52:00,
2013-07-25 04:57:00,62.2,59.2,29.95,WSW,256,0.0,0.0,90,0.01,,---,0.01,VWS V14.01,2013-07-25 09:57:00,
2013-07-25 05:02:00,62.1,59.5,29.94,WSW,256,0.0,0.0,91,0.01,,---,0.01,VWS V14.01,2013-07-25 10:02:00,
2013-07-25 05:07:00,61.9,59.2,29.94,WSW,256,0.0,0.0,91,0.01,,---,0.01,VWS V14.01,2013-07-25 10:07:00,
2013-07-25 05:12:00,61.7,59.0,29.94,WSW,256,0.0,0.0,91,0.00,,---,0.01,VWS V14.01,2013-07-25 10:12:00,
2013-07-25 05:17:00,61.5,58.8,29.94,WSW,256,0.0,0.0,91,0.00,,---,0.01,VWS V14.01,2013-07-25 10:17:00,
2013-07-25 05:22:00,61.4,59.1,29.94,WSW,256,0.0,0.0,92,0.00,,---,0.01,VWS V14.01,2013-07-25 10:22:00,
2013-07-25 05:27:00,61.5,59.5,29.93,WSW,256,0.0,0.0,93,0.00,,---,0.01,VWS V14.01,2013-07-25 10:27:00,
2013-07-25 05:32:00,61.5,59.5,29.94,WSW,256,0.0,1.0,93,0.00,,---,0.01,VWS V14.01,2013-07-25 10:32:00,
2013-07-25 05:37:00,61.4,59.4,29.93,WSW,256,0.0,1.0,93,0.01,,---,0.02,VWS V14.01,2013-07-25 10:37:00,
2013-07-25 05:42:00,61.4,59.4,29.93,SSW,192,1.0,3.0,93,0.01,,---,0.02,VWS V14.01,2013-07-25 10:42:00,
2013-07-25 05:47:00,61.4,59.4,29.94,SSW,192,0.0,3.0,93,0.01,,---,0.02,VWS V14.01,2013-07-25 10:47:00,
2013-07-25 05:52:00,61.3,59.3,29.94,SSW,209,0.0,3.0,93,0.01,,---,0.02,VWS V14.01,2013-07-25 10:52:00,
2013-07-25 05:57:00,61.3,59.3,29.94,SSW,209,0.0,1.0,93,0.01,,---,0.02,VWS V14.01,2013-07-25 10:57:00,
2013-07-25 06:02:00,61.3,59.3,29.94,SW,230,0.0,2.0,93,0.01,,---,0.02,VWS V14.01,2013-07-25 11:02:00,
2013-07-25 06:07:00,61.3,59.0,29.94,SSW,201,1.0,3.0,92,0.01,,---,0.02,VWS V14.01,2013-07-25 11:07:00,
2013-07-25 06:12:00,61.3,59.0,29.94,SSW,201,0.0,1.0,92,0.01,,---,0.02,VWS V14.01,2013-07-25 11:12:00,
2013-07-25 06:17:00,61.3,59.0,29.94,SSW,201,0.0,1.0,92,0.01,,---,0.02,VWS V14.01,2013-07-25 11:17:00,
2013-07-25 06:22:00,61.3,59.0,29.94,SW,219,1.0,2.0,92,0.01,,---,0.02,VWS V14.01,2013-07-25 11:22:00,
2013-07-25 06:27:00,61.4,59.1,29.94,WSW,251,1.0,2.0,92,0.01,,---,0.02,VWS V14.01,2013-07-25 11:27:00,
2013-07-25 06:32:00,61.4,59.1,29.94,NNE,12,0.0,2.0,92,0.01,,---,0.02,VWS V14.01,2013-07-25 11:32:00,
2013-07-25 06:37:00,61.4,59.1,29.94,NNE,12,0.0,2.0,92,0.01,,---,0.02,VWS V14.01,2013-07-25 11:37:00,
2013-07-25 06:42:00,61.5,59.2,29.94,NW,313,0.0,2.0,92,0.00,,---,0.02,VWS V14.01,2013-07-25 11:42:00,
2013-07-25 06:47:00,61.6,59.3,29.94,SW,223,2.0,4.0,92,0.00,,---,0.02,VWS V14.01,2013-07-25 11:47:00,
2013-07-25 06:52:00,61.7,59.0,29.94,SW,223,1.0,4.0,91,0.00,,---,0.02,VWS V14.01,2013-07-25 11:52:00,
2013-07-25 06:57:00,61.8,59.2,29.93,WSW,258,1.0,2.0,91,0.00,,---,0.02,VWS V14.01,2013-07-25 11:57:00,
2013-07-25 07:02:00,62.0,59.3,29.94,South,188,1.0,4.0,91,0.00,,---,0.02,VWS V14.01,2013-07-25 12:02:00,
2013-07-25 07:07:00,62.2,59.2,29.94,SW,215,5.0,5.0,90,0.00,,---,0.02,VWS V14.01,2013-07-25 12:07:00,
2013-07-25 07:12:00,62.4,59.4,29.94,SW,232,2.0,6.0,90,0.00,,---,0.02,VWS V14.01,2013-07-25 12:12:00,
2013-07-25 07:17:00,62.7,59.7,29.94,West,277,1.0,6.0,90,0.00,,---,0.02,VWS V14.01,2013-07-25 12:17:00,
2013-07-25 07:22:00,63.0,59.7,29.94,West,270,1.0,6.0,89,0.00,,---,0.02,VWS V14.01,2013-07-25 12:22:00,
2013-07-25 07:27:00,63.1,59.8,29.95,West,268,2.0,2.0,89,0.00,,---,0.02,VWS V14.01,2013-07-25 12:27:00,
2013-07-25 07:32:00,63.3,60.0,29.95,WNW,285,1.0,4.0,89,0.00,,---,0.02,VWS V14.01,2013-07-25 12:32:00,
2013-07-25 07:37:00,63.5,60.2,29.94,WNW,293,0.0,5.0,89,0.00,,---,0.02,VWS V14.01,2013-07-25 12:37:00,
2013-07-25 07:42:00,63.8,60.5,29.94,SW,235,2.0,3.0,89,0.00,,---,0.02,VWS V14.01,2013-07-25 12:42:00,
2013-07-25 07:47:00,64.1,60.8,29.94,SSW,213,0.0,3.0,89,0.00,,---,0.02,VWS V14.01,2013-07-25 12:47:00,
2013-07-25 07:52:00,64.5,60.9,29.94,NNW,338,0.0,3.0,88,0.00,,---,0.02,VWS V14.01,2013-07-25 12:52:00,
2013-07-25 07:57:00,64.7,61.1,29.95,WNW,289,2.0,4.0,88,0.00,,---,0.02,VWS V14.01,2013-07-25 12:57:00,
2013-07-25 08:02:00,65.1,61.5,29.95,West,276,0.0,4.0,88,0.00,,---,0.02,VWS V14.01,2013-07-25 13:02:00,
2013-07-25 08:07:00,65.4,61.8,29.95,WNW,296,2.0,4.0,88,0.00,,---,0.02,VWS V14.01,2013-07-25 13:07:00,
2013-07-25 08:12:00,65.7,61.7,29.95,WSW,251,0.0,1.0,87,0.00,,---,0.02,VWS V14.01,2013-07-25 13:12:00,
2013-07-25 08:17:00,66.1,62.5,29.95,NNW,335,1.0,4.0,88,0.00,,---,0.02,VWS V14.01,2013-07-25 13:17:00,
2013-07-25 08:22:00,66.6,62.6,29.95,West,274,1.0,5.0,87,0.00,,---,0.02,VWS V14.01,2013-07-25 13:22:00,
2013-07-25 08:27:00,67.3,63.0,29.95,WNW,298,0.0,1.0,86,0.00,,---,0.02,VWS V14.01,2013-07-25 13:27:00,
2013-07-25 08:32:00,68.0,63.3,29.95,SSE,147,0.0,5.0,85,0.00,,---,0.02,VWS V14.01,2013-07-25 13:32:00,
2013-07-25 08:37:00,68.7,63.7,29.95,West,273,1.0,5.0,84,0.00,,---,0.02,VWS V14.01,2013-07-25 13:37:00,
2013-07-25 08:42:00,69.5,64.1,29.95,WNW,299,0.0,1.0,83,0.00,,---,0.02,VWS V14.01,2013-07-25 13:42:00,
2013-07-25 08:47:00,69.6,63.5,29.95,SW,232,2.0,5.0,81,0.00,,---,0.02,VWS V14.01,2013-07-25 13:47:00,
2013-07-25 08:52:00,69.7,64.0,29.95,NW,308,0.0,5.0,82,0.00,,---,0.02,VWS V14.01,2013-07-25 13:52:00,
2013-07-25 08:57:00,70.1,64.4,29.95,NW,308,0.0,1.0,82,0.00,,---,0.02,VWS V14.01,2013-07-25 13:57:00,
2013-07-25 09:02:00,70.8,64.7,29.95,West,277,1.0,4.0,81,0.00,,---,0.02,VWS V14.01,2013-07-25 14:02:00,
2013-07-25 09:07:00,71.7,65.2,29.94,West,268,1.0,4.0,80,0.00,,---,0.02,VWS V14.01,2013-07-25 14:07:00,
2013-07-25 09:12:00,72.6,65.7,29.94,WSW,254,1.0,1.0,79,0.00,,---,0.02,VWS V14.01,2013-07-25 14:12:00,
2013-07-25 09:17:00,73.7,66.4,29.94,ESE,123,0.0,2.0,78,0.00,,---,0.02,VWS V14.01,2013-07-25 14:17:00,
2013-07-25 09:22:00,74.8,67.1,29.94,SW,232,0.0,2.0,77,0.00,,---,0.02,VWS V14.01,2013-07-25 14:22:00,
2013-07-25 09:27:00,75.4,66.9,29.95,West,273,1.0,2.0,75,0.00,,---,0.02,VWS V14.01,2013-07-25 14:27:00,
2013-07-25 09:32:00,75.6,66.3,29.95,WNW,292,1.0,4.0,73,0.00,,---,0.02,VWS V14.01,2013-07-25 14:32:00,
2013-07-25 09:37:00,75.9,66.6,29.95,NNW,338,2.0,4.0,73,0.00,,---,0.02,VWS V14.01,2013-07-25 14:37:00,
2013-07-25 09:42:00,76.2,66.1,29.95,West,280,1.0,5.0,71,0.00,,---,0.02,VWS V14.01,2013-07-25 14:42:00,
2013-07-25 09:47:00,76.5,67.6,29.95,NNW,338,0.0,5.0,74,0.00,,---,0.02,VWS V14.01,2013-07-25 14:47:00,
2013-07-25 09:52:00,77.0,67.3,29.95,West,261,1.0,5.0,72,0.00,,---,0.02,VWS V14.01,2013-07-25 14:52:00,
2013-07-25 09:57:00,77.7,68.0,29.95,SW,228,4.0,6.0,72,0.00,,---,0.02,VWS V14.01,2013-07-25 14:57:00,
2013-07-25 10:02:00,78.2,67.6,29.95,NW,315,0.0,6.0,70,0.00,,---,0.02,VWS V14.01,2013-07-25 15:02:00,
2013-07-25 10:07:00,78.2,67.2,29.95,NW,308,0.0,6.0,69,0.00,,---,0.02,VWS V14.01,2013-07-25 15:07:00,
2013-07-25 10:12:00,77.7,66.7,29.95,West,270,1.0,2.0,69,0.00,,---,0.02,VWS V14.01,2013-07-25 15:12:00,
2013-07-25 10:17:00,77.6,68.3,29.95,NW,304,1.0,2.0,73,0.00,,---,0.02,VWS V14.01,2013-07-25 15:17:00,
2013-07-25 10:22:00,78.1,67.9,29.95,WNW,294,2.0,3.0,71,0.00,,---,0.02,VWS V14.01,2013-07-25 15:22:00,
2013-07-25 10:27:00,78.4,67.8,29.95,NW,308,1.0,3.0,70,0.00,,---,0.02,VWS V14.01,2013-07-25 15:27:00,
2013-07-25 10:32:00,78.4,67.4,29.95,West,269,4.0,8.0,69,0.00,,---,0.02,VWS V14.01,2013-07-25 15:32:00,
2013-07-25 10:37:00,78.3,67.3,29.95,West,268,0.0,8.0,69,0.00,,---,0.02,VWS V14.01,2013-07-25 15:37:00,
2013-07-25 10:42:00,78.8,67.8,29.95,WNW,285,3.0,4.0,69,0.00,,---,0.02,VWS V14.01,2013-07-25 15:42:00,
2013-07-25 10:47:00,78.9,68.3,29.94,WNW,282,1.0,4.0,70,0.00,,---,0.02,VWS V14.01,2013-07-25 15:47:00,
2013-07-25 10:52:00,79.1,68.5,29.94,WNW,285,0.0,4.0,70,0.00,,---,0.02,VWS V14.01,2013-07-25 15:52:00,
2013-07-25 10:57:00,79.4,67.9,29.95,NNW,335,1.0,1.0,68,0.00,,---,0.02,VWS V14.01,2013-07-25 15:57:00,
2013-07-25 11:02:00,79.3,67.8,29.95,WNW,289,1.0,3.0,68,0.00,,---,0.02,VWS V14.01,2013-07-25 16:02:00,
2013-07-25 11:07:00,79.1,68.1,29.95,WNW,294,1.0,3.0,69,0.00,,---,0.02,VWS V14.01,2013-07-25 16:07:00,
2013-07-25 11:12:00,79.4,68.3,29.95,ENE,74,0.0,1.0,69,0.00,,---,0.02,VWS V14.01,2013-07-25 16:12:00,
2013-07-25 11:17:00,79.5,67.2,29.95,WNW,301,1.0,7.0,66,0.00,,---,0.02,VWS V14.01,2013-07-25 16:17:00,
2013-07-25 11:22:00,79.3,67.4,29.95,WNW,282,0.0,7.0,67,0.00,,---,0.02,VWS V14.01,2013-07-25 16:22:00,
2013-07-25 11:27:00,79.3,67.8,29.95,West,274,1.0,1.0,68,0.00,,---,0.02,VWS V14.01,2013-07-25 16:27:00,
2013-07-25 11:32:00,79.4,67.9,29.95,West,265,1.0,3.0,68,0.00,,---,0.02,VWS V14.01,2013-07-25 16:32:00,
2013-07-25 11:37:00,79.7,67.3,29.95,WSW,247,1.0,3.0,66,0.00,,---,0.02,VWS V14.01,2013-07-25 16:37:00,
2013-07-25 11:42:00,79.9,67.1,29.95,East,100,3.0,5.0,65,0.00,,---,0.02,VWS V14.01,2013-07-25 16:42:00,
2013-07-25 11:47:00,79.9,67.5,29.95,WNW,289,1.0,5.0,66,0.00,,---,0.02,VWS V14.01,2013-07-25 16:47:00,
2013-07-25 11:52:00,79.8,67.9,29.95,WSW,249,1.0,5.0,67,0.00,,---,0.02,VWS V14.01,2013-07-25 16:52:00,
2013-07-25 11:57:00,79.8,67.4,29.95,WSW,245,1.0,2.0,66,0.00,,---,0.02,VWS V14.01,2013-07-25 16:57:00,
2013-07-25 12:02:00,79.9,68.0,29.95,WNW,289,0.0,3.0,67,0.00,,---,0.02,VWS V14.01,2013-07-25 17:02:00,
2013-07-25 12:07:00,79.8,67.9,29.95,NW,316,1.0,3.0,67,0.00,,---,0.02,VWS V14.01,2013-07-25 17:07:00,
2013-07-25 12:12:00,79.4,67.5,29.95,NW,313,1.0,5.0,67,0.00,,---,0.02,VWS V14.01,2013-07-25 17:12:00,
2013-07-25 12:17:00,79.3,67.8,29.95,SW,228,1.0,5.0,68,0.00,,---,0.02,VWS V14.01,2013-07-25 17:17:00,
2013-07-25 12:22:00,79.3,68.3,29.95,NNW,328,0.0,5.0,69,0.00,,---,0.02,VWS V14.01,2013-07-25 17:22:00,
2013-07-25 12:27:00,79.6,68.5,29.95,West,268,2.0,2.0,69,0.00,,---,0.02,VWS V14.01,2013-07-25 17:27:00,
2013-07-25 12:32:00,79.8,68.3,29.95,NW,316,1.0,4.0,68,0.00,,---,0.02,VWS V14.01,2013-07-25 17:32:00,
2013-07-25 12:37:00,79.8,68.3,29.95,West,270,1.0,4.0,68,0.00,,---,0.02,VWS V14.01,2013-07-25 17:37:00,
2013-07-25 12:42:00,79.9,67.5,29.95,West,268,1.0,2.0,66,0.00,,---,0.02,VWS V14.01,2013-07-25 17:42:00,
2013-07-25 12:47:00,80.4,68.4,29.95,WSW,254,1.0,4.0,67,0.00,,---,0.02,VWS V14.01,2013-07-25 17:47:00,
2013-07-25 12:52:00,80.8,67.9,29.95,WSW,239,1.0,5.0,65,0.00,,---,0.02,VWS V14.01,2013-07-25 17:52:00,
2013-07-25 12:57:00,81.0,68.1,29.95,WSW,253,0.0,3.0,65,0.00,,---,0.02,VWS V14.01,2013-07-25 17:57:00,
2013-07-25 13:02:00,80.7,68.7,29.94,WNW,287,0.0,6.0,67,0.00,,---,0.02,VWS V14.01,2013-07-25 18:02:00,
2013-07-25 13:07:00,80.4,68.0,29.94,West,273,1.0,6.0,66,0.00,,---,0.02,VWS V14.01,2013-07-25 18:07:00,
2013-07-25 13:12:00,80.4,68.0,29.94,WNW,287,1.0,2.0,66,0.00,,---,0.02,VWS V14.01,2013-07-25 18:12:00,
2013-07-25 13:17:00,80.2,68.3,29.94,West,272,1.0,5.0,67,0.00,,---,0.02,VWS V14.01,2013-07-25 18:17:00,
2013-07-25 13:22:00,80.3,69.2,29.94,West,273,1.0,5.0,69,0.00,,---,0.02,VWS V14.01,2013-07-25 18:22:00,
2013-07-25 13:27:00,80.4,68.9,29.94,WNW,296,1.0,2.0,68,0.00,,---,0.02,VWS V14.01,2013-07-25 18:27:00,
2013-07-25 13:32:00,80.4,69.3,29.93,NW,308,1.0,5.0,69,0.00,,---,0.02,VWS V14.01,2013-07-25 18:32:00,
2013-07-25 13:37:00,80.3,69.2,29.94,NNW,339,2.0,5.0,69,0.00,,---,0.02,VWS V14.01,2013-07-25 18:37:00,
2013-07-25 13:42:00,80.5,68.5,29.94,West,277,1.0,5.0,67,0.00,,---,0.02,VWS V14.01,2013-07-25 18:42:00,
2013-07-25 13:47:00,80.9,69.8,29.93,NW,307,0.0,5.0,69,0.00,,---,0.02,VWS V14.01,2013-07-25 18:47:00,
2013-07-25 13:52:00,81.6,70.4,29.92,WNW,282,3.0,5.0,69,0.00,,---,0.02,VWS V14.01,2013-07-25 18:52:00,
2013-07-25 13:57:00,82.3,69.8,29.92,North,355,0.0,1.0,66,0.00,,---,0.02,VWS V14.01,2013-07-25 18:57:00,
2013-07-25 14:02:00,83.2,70.2,29.92,NNW,334,0.0,2.0,65,0.00,,---,0.02,VWS V14.01,2013-07-25 19:02:00,
2013-07-25 14:07:00,84.2,70.2,29.92,West,276,4.0,7.0,63,0.00,,---,0.02,VWS V14.01,2013-07-25 19:07:00,
2013-07-25 14:12:00,84.2,68.3,29.92,West,265,1.0,1.0,59,0.00,,---,0.02,VWS V14.01,2013-07-25 19:12:00,
2013-07-25 14:17:00,83.5,67.2,29.92,NW,324,1.0,2.0,58,0.00,,---,0.02,VWS V14.01,2013-07-25 19:17:00,
2013-07-25 14:22:00,82.9,66.6,29.92,NW,313,1.0,5.0,58,0.00,,---,0.02,VWS V14.01,2013-07-25 19:22:00,
2013-07-25 14:27:00,82.8,67.0,29.92,NW,313,0.0,0.0,59,0.00,,---,0.02,VWS V14.01,2013-07-25 19:27:00,
2013-07-25 14:32:00,82.5,66.7,29.93,NNE,23,0.0,1.0,59,0.00,,---,0.02,VWS V14.01,2013-07-25 19:32:00,
2013-07-25 14:37:00,82.3,65.6,29.94,WSW,258,2.0,4.0,57,0.00,,---,0.02,VWS V14.01,2013-07-25 19:37:00,
2013-07-25 14:42:00,81.9,64.7,29.93,NW,307,0.0,1.0,56,0.00,,---,0.02,VWS V14.01,2013-07-25 19:42:00,
2013-07-25 14:47:00,81.4,64.7,29.93,NW,319,1.0,9.0,57,0.00,,---,0.02,VWS V14.01,2013-07-25 19:47:00,
2013-07-25 14:52:00,80.9,64.2,29.93,NW,307,1.0,9.0,57,0.00,,---,0.02,VWS V14.01,2013-07-25 19:52:00,
2013-07-25 14:57:00,80.4,64.3,29.93,WNW,291,2.0,2.0,58,0.00,,---,0.02,VWS V14.01,2013-07-25 19:57:00,
2013-07-25 15:02:00,79.9,64.3,29.93,WNW,301,0.0,7.0,59,0.00,,---,0.02,VWS V14.01,2013-07-25 20:02:00,
2013-07-25 15:07:00,79.6,63.5,29.93,NW,314,1.0,7.0,58,0.00,,---,0.02,VWS V14.01,2013-07-25 20:07:00,
2013-07-25 15:12:00,79.7,64.6,29.93,NW,312,0.0,1.0,60,0.00,,---,0.02,VWS V14.01,2013-07-25 20:12:00,
2013-07-25 15:17:00,80.2,64.6,29.93,West,269,0.0,5.0,59,0.00,,---,0.02,VWS V14.01,2013-07-25 20:17:00,
2013-07-25 15:22:00,81.1,65.4,29.93,SW,235,1.0,5.0,59,0.00,,---,0.02,VWS V14.01,2013-07-25 20:22:00,
2013-07-25 15:27:00,82.0,65.3,29.93,North,349,0.0,0.0,57,0.00,,---,0.02,VWS V14.01,2013-07-25 20:27:00,
2013-07-25 15:32:00,82.1,64.9,29.93,SSW,192,0.0,3.0,56,0.00,,---,0.02,VWS V14.01,2013-07-25 20:32:00,
2013-07-25 15:37:00,81.8,65.1,29.93,North,352,0.0,4.0,57,0.00,,---,0.02,VWS V14.01,2013-07-25 20:37:00,
2013-07-25 15:42:00,81.2,65.5,29.93,North,7,0.0,1.0,59,0.00,,---,0.02,VWS V14.01,2013-07-25 20:42:00,
2013-07-25 15:47:00,80.8,64.7,29.93,SE,124,2.0,3.0,58,0.00,,---,0.02,VWS V14.01,2013-07-25 20:47:00,
2013-07-25 15:52:00,80.5,64.4,29.92,NNE,33,2.0,6.0,58,0.00,,---,0.02,VWS V14.01,2013-07-25 20:52:00,
2013-07-25 15:57:00,81.0,65.3,29.92,North,351,0.0,1.0,59,0.00,,---,0.02,VWS V14.01,2013-07-25 20:57:00,
2013-07-25 16:02:00,81.0,64.3,29.92,NNE,19,1.0,5.0,57,0.00,,---,0.02,VWS V14.01,2013-07-25 21:02:00,
2013-07-25 16:07:00,81.2,64.5,29.91,North,358,0.0,5.0,57,0.00,,---,0.02,VWS V14.01,2013-07-25 21:07:00,
2013-07-25 16:12:00,81.0,64.8,29.91,North,7,1.0,2.0,58,0.00,,---,0.02,VWS V14.01,2013-07-25 21:12:00,
2013-07-25 16:17:00,81.2,64.0,29.91,North,7,1.0,2.0,56,0.00,,---,0.02,VWS V14.01,2013-07-25 21:17:00,
2013-07-25 16:22:00,81.7,65.5,29.91,NNW,345,0.0,2.0,58,0.00,,---,0.02,VWS V14.01,2013-07-25 21:22:00,
2013-07-25 16:27:00,82.5,66.7,29.91,NNW,346,0.0,1.0,59,0.00,,---,0.02,VWS V14.01,2013-07-25 21:27:00,
2013-07-25 16:32:00,83.0,64.7,29.90,North,352,1.0,2.0,54,0.00,,---,0.02,VWS V14.01,2013-07-25 21:32:00,
2013-07-25 16:37:00,82.6,62.1,29.90,North,349,0.0,3.0,50,0.00,,---,0.02,VWS V14.01,2013-07-25 21:37:00,
2013-07-25 16:42:00,82.2,63.4,29.90,North,351,0.0,1.0,53,0.00,,---,0.02,VWS V14.01,2013-07-25 21:42:00,
2013-07-25 16:47:00,82.5,62.0,29.90,West,275,1.0,2.0,50,0.00,,---,0.02,VWS V14.01,2013-07-25 21:47:00,
2013-07-25 16:52:00,82.7,61.6,29.90,SSW,204,1.0,3.0,49,0.00,,---,0.02,VWS V14.01,2013-07-25 21:52:00,
2013-07-25 16:57:00,82.3,61.2,29.90,SSW,204,0.0,0.0,49,0.00,,---,0.02,VWS V14.01,2013-07-25 21:57:00,
2013-07-25 17:02:00,82.0,62.1,29.89,SSW,205,1.0,3.0,51,0.00,,---,0.02,VWS V14.01,2013-07-25 22:02:00,
2013-07-25 17:07:00,81.7,63.5,29.90,SSW,204,0.0,3.0,54,0.00,,---,0.02,VWS V14.01,2013-07-25 22:07:00,
2013-07-25 17:12:00,81.6,63.9,29.90,SSW,204,0.0,0.0,55,0.00,,---,0.02,VWS V14.01,2013-07-25 22:12:00,
2013-07-25 17:17:00,81.9,62.6,29.90,West,267,1.0,1.0,52,0.00,,---,0.02,VWS V14.01,2013-07-25 22:17:00,
2013-07-25 17:22:00,82.5,62.6,29.90,SSW,211,1.0,4.0,51,0.00,,---,0.02,VWS V14.01,2013-07-25 22:22:00,
2013-07-25 17:27:00,82.8,62.8,29.90,SSW,213,0.0,1.0,51,0.00,,---,0.02,VWS V14.01,2013-07-25 22:27:00,
2013-07-25 17:32:00,82.8,62.3,29.90,WNW,299,0.0,4.0,50,0.00,,---,0.02,VWS V14.01,2013-07-25 22:32:00,
2013-07-25 17:37:00,82.6,62.1,29.90,West,270,2.0,4.0,50,0.00,,---,0.02,VWS V14.01,2013-07-25 22:37:00,
2013-07-25 17:42:00,82.9,61.8,29.90,WNW,292,1.0,3.0,49,0.00,,---,0.02,VWS V14.01,2013-07-25 22:42:00,
2013-07-25 17:47:00,82.7,61.6,29.90,WSW,239,0.0,3.0,49,0.00,,---,0.02,VWS V14.01,2013-07-25 22:47:00,
2013-07-25 17:52:00,82.9,63.5,29.89,WSW,251,0.0,3.0,52,0.00,,---,0.02,VWS V14.01,2013-07-25 22:52:00,
2013-07-25 17:57:00,83.0,63.0,29.89,WNW,289,1.0,3.0,51,0.00,,---,0.02,VWS V14.01,2013-07-25 22:57:00,
2013-07-25 18:02:00,82.6,63.2,29.89,WSW,256,2.0,4.0,52,0.00,,---,0.02,VWS V14.01,2013-07-25 23:02:00,
2013-07-25 18:07:00,81.7,64.0,29.89,WNW,292,2.0,4.0,55,0.00,,---,0.02,VWS V14.01,2013-07-25 23:07:00,
2013-07-25 18:12:00,81.0,63.8,29.89,West,281,1.0,2.0,56,0.00,,---,0.02,VWS V14.01,2013-07-25 23:12:00,
2013-07-25 18:17:00,81.3,64.6,29.89,WNW,296,1.0,3.0,57,0.00,,---,0.02,VWS V14.01,2013-07-25 23:17:00,
2013-07-25 18:22:00,81.5,64.8,29.89,WNW,291,1.0,3.0,57,0.00,,---,0.02,VWS V14.01,2013-07-25 23:22:00,
2013-07-25 18:27:00,81.6,64.9,29.89,WNW,294,0.0,1.0,57,0.00,,---,0.02,VWS V14.01,2013-07-25 23:27:00,
2013-07-25 18:32:00,81.1,64.9,29.89,WNW,296,0.0,1.0,58,0.00,,---,0.02,VWS V14.01,2013-07-25 23:32:00,
2013-07-25 18:37:00,80.9,64.8,29.88,West,271,1.0,2.0,58,0.00,,---,0.02,VWS V14.01,2013-07-25 23:37:00,
2013-07-25 18:42:00,80.8,65.6,29.88,NNW,344,0.0,0.0,60,0.00,,---,0.02,VWS V14.01,2013-07-25 23:42:00,
2013-07-25 18:47:00,80.6,65.0,29.88,NNW,335,1.0,1.0,59,0.00,,---,0.02,VWS V14.01,2013-07-25 23:47:00,
2013-07-25 18:52:00,80.6,65.0,29.88,NNW,336,0.0,1.0,59,0.00,,---,0.02,VWS V14.01,2013-07-25 23:52:00,
2013-07-25 18:57:00,81.0,64.3,29.88,WNW,301,0.0,1.0,57,0.00,,---,0.02,VWS V14.01,2013-07-25 23:57:00,
2013-07-25 19:02:00,81.2,65.5,29.88,WNW,300,0.0,2.0,59,0.00,,---,0.02,VWS V14.01,2013-07-26 00:02:00,
2013-07-25 19:07:00,81.3,65.6,29.88,WNW,300,0.0,2.0,59,0.00,,---,0.02,VWS V14.01,2013-07-26 00:07:00,
2013-07-25 19:12:00,81.7,65.5,29.88,WNW,300,0.0,0.0,58,0.00,,---,0.02,VWS V14.01,2013-07-26 00:12:00,
2013-07-25 19:17:00,82.0,64.8,29.88,West,270,0.0,3.0,56,0.00,,---,0.02,VWS V14.01,2013-07-26 00:17:00,
2013-07-25 19:22:00,81.7,64.5,29.88,West,265,0.0,4.0,56,0.00,,---,0.02,VWS V14.01,2013-07-26 00:22:00,
2013-07-25 19:27:00,81.4,63.7,29.88,West,265,0.0,1.0,55,0.00,,---,0.02,VWS V14.01,2013-07-26 00:27:00,
2013-07-25 19:32:00,80.7,63.0,29.89,NW,304,0.0,4.0,55,0.00,,---,0.02,VWS V14.01,2013-07-26 00:32:00,
2013-07-25 19:37:00,79.9,62.8,29.88,WNW,295,0.0,4.0,56,0.00,,---,0.02,VWS V14.01,2013-07-26 00:37:00,
2013-07-25 19:42:00,79.3,62.8,29.89,WNW,294,0.0,0.0,57,0.00,,---,0.02,VWS V14.01,2013-07-26 00:42:00,
2013-07-25 19:47:00,78.7,61.7,29.89,West,280,0.0,2.0,56,0.00,,---,0.02,VWS V14.01,2013-07-26 00:47:00,
2013-07-25 19:52:00,78.3,61.3,29.89,West,281,0.0,2.0,56,0.00,,---,0.02,VWS V14.01,2013-07-26 00:52:00,
2013-07-25 19:57:00,77.8,61.9,29.89,West,280,1.0,2.0,58,0.00,,---,0.02,VWS V14.01,2013-07-26 00:57:00,
2013-07-25 20:02:00,77.5,61.6,29.89,WNW,289,0.0,2.0,58,0.00,,---,0.02,VWS V14.01,2013-07-26 01:02:00,
2013-07-25 20:07:00,77.2,61.3,29.89,WNW,289,0.0,2.0,58,0.00,,---,0.02,VWS V14.01,2013-07-26 01:07:00,
2013-07-25 20:12:00,77.0,61.1,29.89,West,267,0.0,2.0,58,0.00,,---,0.02,VWS V14.01,2013-07-26 01:12:00,
2013-07-25 20:17:00,76.7,60.3,29.89,West,271,0.0,2.0,57,0.00,,---,0.02,VWS V14.01,2013-07-26 01:17:00,
2013-07-25 20:22:00,76.5,60.2,29.90,West,271,0.0,2.0,57,0.00,,---,0.02,VWS V14.01,2013-07-26 01:22:00,
2013-07-25 20:27:00,76.3,60.0,29.90,NW,305,0.0,1.0,57,0.00,,---,0.02,VWS V14.01,2013-07-26 01:27:00,
2013-07-25 20:32:00,76.1,60.3,29.89,WNW,303,0.0,1.0,58,0.00,,---,0.02,VWS V14.01,2013-07-26 01:32:00,
2013-07-25 20:37:00,75.9,60.1,29.90,WNW,303,0.0,1.0,58,0.00,,---,0.02,VWS V14.01,2013-07-26 01:37:00,
2013-07-25 20:42:00,75.7,60.4,29.90,WNW,287,0.0,0.0,59,0.00,,---,0.02,VWS V14.01,2013-07-26 01:42:00,
2013-07-25 20:47:00,75.5,59.7,29.90,West,269,0.0,2.0,58,0.00,,---,0.02,VWS V14.01,2013-07-26 01:47:00,
2013-07-25 20:52:00,75.5,60.2,29.90,West,273,0.0,3.0,59,0.00,,---,0.02,VWS V14.01,2013-07-26 01:52:00,
2013-07-25 20:57:00,75.4,60.1,29.90,West,273,0.0,1.0,59,0.00,,---,0.02,VWS V14.01,2013-07-26 01:57:00,
2013-07-25 21:02:00,75.3,60.0,29.90,West,273,0.0,2.0,59,0.00,,---,0.02,VWS V14.01,2013-07-26 02:02:00,
2013-07-25 21:07:00,75.2,59.9,29.90,SW,230,1.0,3.0,59,0.00,,---,0.02,VWS V14.01,2013-07-26 02:07:00,
2013-07-25 21:12:00,75.2,60.4,29.90,WNW,289,1.0,3.0,60,0.00,,---,0.02,VWS V14.01,2013-07-26 02:12:00,
2013-07-25 21:17:00,75.1,60.8,29.90,NW,311,0.0,3.0,61,0.00,,---,0.02,VWS V14.01,2013-07-26 02:17:00,
2013-07-25 21:22:00,74.9,60.1,29.90,NW,311,0.0,3.0,60,0.00,,---,0.02,VWS V14.01,2013-07-26 02:22:00,
2013-07-25 21:27:00,74.8,60.0,29.91,NW,311,0.0,0.0,60,0.00,,---,0.02,VWS V14.01,2013-07-26 02:27:00,
2013-07-25 21:32:00,74.6,60.3,29.91,NW,312,0.0,0.0,61,0.00,,---,0.02,VWS V14.01,2013-07-26 02:32:00,
2013-07-25 21:37:00,74.4,60.1,29.91,NW,311,0.0,1.0,61,0.00,,---,0.02,VWS V14.01,2013-07-26 02:37:00,
2013-07-25 21:42:00,74.3,60.5,29.91,NW,312,0.0,0.0,62,0.00,,---,0.02,VWS V14.01,2013-07-26 02:42:00,
2013-07-25 21:47:00,74.2,60.8,29.91,NW,311,0.0,0.0,63,0.00,,---,0.02,VWS V14.01,2013-07-26 02:47:00,
2013-07-25 21:52:00,74.0,60.6,29.91,NW,312,0.0,0.0,63,0.00,,---,0.02,VWS V14.01,2013-07-26 02:52:00,
2013-07-25 21:57:00,73.8,60.4,29.91,NW,311,0.0,0.0,63,0.00,,---,0.02,VWS V14.01,2013-07-26 02:57:00,
2013-07-25 22:02:00,73.6,60.7,29.92,NW,311,0.0,0.0,64,0.00,,---,0.02,VWS V14.01,2013-07-26 03:02:00,
2013-07-25 22:07:00,73.4,60.9,29.92,NW,311,0.0,0.0,65,0.00,,---,0.02,VWS V14.01,2013-07-26 03:07:00,
2013-07-25 22:12:00,73.4,61.4,29.92,NW,310,0.0,0.0,66,0.00,,---,0.02,VWS V14.01,2013-07-26 03:12:00,
2013-07-25 22:17:00,73.4,62.2,29.92,WNW,292,0.0,2.0,68,0.00,,---,0.02,VWS V14.01,2013-07-26 03:17:00,
2013-07-25 22:22:00,73.4,62.6,29.92,WNW,292,0.0,2.0,69,0.00,,---,0.02,VWS V14.01,2013-07-26 03:22:00,
2013-07-25 22:27:00,73.3,63.3,29.92,WNW,292,0.0,1.0,71,0.00,,---,0.02,VWS V14.01,2013-07-26 03:27:00,
2013-07-25 22:32:00,73.3,64.1,29.92,WNW,292,0.0,2.0,73,0.00,,---,0.02,VWS V14.01,2013-07-26 03:32:00,
2013-07-25 22:37:00,73.4,65.0,29.92,West,275,2.0,3.0,75,0.00,,---,0.02,VWS V14.01,2013-07-26 03:37:00,
2013-07-25 22:42:00,73.4,65.4,29.91,SW,218,2.0,4.0,76,0.00,,---,0.02,VWS V14.01,2013-07-26 03:42:00,
2013-07-25 22:47:00,73.3,65.3,29.91,ESE,110,1.0,4.0,76,0.00,,---,0.02,VWS V14.01,2013-07-26 03:47:00,
2013-07-25 22:52:00,73.0,65.4,29.91,East,79,1.0,5.0,77,0.00,,---,0.02,VWS V14.01,2013-07-26 03:52:00,
2013-07-25 22:57:00,72.7,65.4,29.91,WSW,258,1.0,3.0,78,0.00,,---,0.02,VWS V14.01,2013-07-26 03:57:00,
2013-07-25 23:01:00,72.5,65.6,29.91,West,265,4.0,6.0,79,0.00,,---,0.02,VWS V14.01,2013-07-26 04:01:00,
2013-07-25 23:06:00,72.2,65.3,29.91,WSW,239,2.0,6.0,79,0.00,,---,0.02,VWS V14.01,2013-07-26 04:06:00,
2013-07-25 23:11:00,71.9,65.4,29.91,WNW,289,2.0,3.0,80,0.00,,---,0.02,VWS V14.01,2013-07-26 04:11:00,
2013-07-25 23:17:00,71.6,65.1,29.91,SSW,192,2.0,4.0,80,0.00,,---,0.02,VWS V14.01,2013-07-26 04:17:00,
2013-07-25 23:22:00,71.4,65.3,29.91,WSW,243,1.0,5.0,81,0.00,,---,0.02,VWS V14.01,2013-07-26 04:22:00,
2013-07-25 23:27:00,71.3,65.2,29.91,WNW,289,0.0,1.0,81,0.00,,---,0.02,VWS V14.01,2013-07-26 04:27:00,
2013-07-25 23:32:00,71.2,65.4,29.91,WSW,251,1.0,4.0,82,0.00,,---,0.02,VWS V14.01,2013-07-26 04:32:00,
2013-07-25 23:37:00,71.1,65.3,29.91,WNW,293,0.0,6.0,82,0.00,,---,0.02,VWS V14.01,2013-07-26 04:37:00,
2013-07-25 23:42:00,71.0,65.2,29.91,SE,124,1.0,2.0,82,0.00,,---,0.02,VWS V14.01,2013-07-26 04:42:00,
2013-07-25 23:47:00,71.0,65.2,29.91,SSW,206,2.0,5.0,82,0.00,,---,0.02,VWS V14.01,2013-07-26 04:47:00,
2013-07-25 23:52:00,70.9,65.1,29.90,West,278,0.0,5.0,82,0.00,,---,0.02,VWS V14.01,2013-07-26 04:52:00,
2013-07-25 23:57:00,70.9,65.1,29.90,West,265,2.0,3.0,82,0.00,,---,0.00,VWS V14.01,2013-07-26 04:57:00,